Change the Weather History Date:

Wednesday, November 10, 2010

  Actual Average Record
Temperature  
Mean Temperature 48 °F -  
Max Temperature 53 °F 44 °F 62 °F (1964)
Min Temperature 44 °F 31 °F 13 °F (1986)
Degree Days  
Heating Degree Days 16    
Moisture  
Dew Point 39 °F    
Average Humidity 68    
Maximum Humidity 81    
Minimum Humidity 58    
Precipitation  
Precipitation 0.00 in - - ()
Sea Level Pressure  
Sea Level Pressure 30.11 in    
Wind  
Wind Speed 8 mph (SE)    
Max Wind Speed 15 mph    
Max Gust Speed -    
Visibility 8 miles    
Events      
Averages and records for this station are not official NWS values.
T = Trace of Precipitation, MM = Missing Value Source: NWS Daily Summary

Daily Weather History Graph

Daily Weather History Graph

Search for Another Location

Airport or City:

Trip Planner

Search our weather history database for the weather conditions in past years. The results will help you decide how hot, cold, wet, or windy it might be!

Date:

Astronomy

Nov. 10, 2010 Rise Set
Actual Time 6:41 AM CST 4:26 PM CST
Civil Twilight 6:10 AM CST 4:58 PM CST
Nautical Twilight 5:34 AM CST 5:33 PM CST
Astronomical Twilight 5:00 AM CST 6:07 PM CST
Moon 11:10 AM CST (11/10) 8:24 PM CST (11/10)
Length of Visible Light 10h 47m
Length of Day
9h 45m
Waxing Crescent, 23% of the Moon is Illuminated
Nov 10
Waxing Crescent
Nov 13
First Quarter
Nov 21
Full
Nov 28
Last Quarter
Dec 5
New

Hourly Weather History & Observations

Time (CST) Temp. Windchill Dew Point Humidity Pressure Visibility Wind Dir Wind Speed Gust Speed Precip Events Conditions
12:15 AM 46.4 °F 43.5 °F 39.2 °F 76% 30.08 in 10.0 mi SSE 5.8 mph - N/A   Clear
12:35 AM 48.2 °F - 39.2 °F 71% 30.08 in 10.0 mi SE 10.4 mph - N/A   Clear
12:55 AM 48.2 °F - 39.2 °F 71% 30.08 in 10.0 mi SE 9.2 mph - N/A   Clear
1:15 AM 46.4 °F 42.4 °F 39.2 °F 76% 30.09 in 10.0 mi SE 8.1 mph - N/A   Clear
1:35 AM 46.4 °F 42.9 °F 37.4 °F 71% 30.10 in 10.0 mi SE 6.9 mph - N/A   Clear
2:35 AM 44.6 °F 40.7 °F 37.4 °F 76% 30.10 in 10.0 mi SE 6.9 mph - N/A   Clear
2:55 AM 46.4 °F 42.4 °F 39.2 °F 76% 30.10 in 10.0 mi SE 8.1 mph - N/A   Clear
3:15 AM 46.4 °F 41.9 °F 39.2 °F 76% 30.10 in 10.0 mi SE 9.2 mph - N/A   Clear
3:35 AM 46.4 °F 42.4 °F 39.2 °F 76% 30.10 in 10.0 mi SE 8.1 mph - N/A   Clear
3:55 AM 44.6 °F 39.7 °F 37.4 °F 76% 30.09 in 10.0 mi SE 9.2 mph - N/A   Clear
4:15 AM 44.6 °F 40.2 °F 37.4 °F 76% 30.09 in 9.0 mi SSE 8.1 mph - N/A   Clear
4:35 AM 44.6 °F 39.7 °F 39.2 °F 81% 30.09 in 8.0 mi SSE 9.2 mph - N/A   Clear
4:55 AM 46.4 °F 41.9 °F 37.4 °F 71% 30.10 in 8.0 mi SSE 9.2 mph - N/A   Clear
5:15 AM 44.6 °F 40.2 °F 37.4 °F 76% 30.09 in 7.0 mi SE 8.1 mph - N/A   Clear
5:35 AM 46.4 °F 43.5 °F 39.2 °F 76% 30.10 in 7.0 mi SSE 5.8 mph - N/A   Clear
5:55 AM 46.4 °F 44.3 °F 39.2 °F 76% 30.10 in 7.0 mi South 4.6 mph - N/A   Clear
6:15 AM 44.6 °F 43.1 °F 39.2 °F 81% 30.10 in 6.0 mi SE 3.5 mph - N/A   Clear
6:35 AM 44.6 °F 43.1 °F 37.4 °F 76% 30.10 in 4.0 mi SE 3.5 mph - N/A   Clear
6:55 AM 44.6 °F 41.4 °F 37.4 °F 76% 30.10 in 3.0 mi SE 5.8 mph - N/A   Clear
7:15 AM 46.4 °F 44.3 °F 39.2 °F 76% 30.10 in 4.0 mi SE 4.6 mph - N/A   Clear
7:35 AM 46.4 °F 45.2 °F 39.2 °F 76% 30.11 in 5.0 mi SSE 3.5 mph - N/A   Clear
7:55 AM 48.2 °F - 41.0 °F 76% 30.11 in 5.0 mi SSE 6.9 mph - N/A   Clear
8:15 AM 48.2 °F - 39.2 °F 71% 30.12 in 6.0 mi SSE 6.9 mph - N/A   Clear
8:35 AM 48.2 °F - 39.2 °F 71% 30.12 in 7.0 mi SSE 8.1 mph - N/A   Clear
8:55 AM 50.0 °F - 39.2 °F 66% 30.12 in 8.0 mi SSE 10.4 mph - N/A   Clear
9:15 AM 50.0 °F - 39.2 °F 66% 30.12 in 8.0 mi SE 12.7 mph - N/A   Clear
9:35 AM 50.0 °F - 39.2 °F 66% 30.13 in 9.0 mi SSE 12.7 mph - N/A   Clear
9:55 AM 51.8 °F - 39.2 °F 62% 30.13 in 9.0 mi SSE 10.4 mph - N/A   Clear
10:15 AM 51.8 °F - 39.2 °F 62% 30.14 in 9.0 mi SSE 13.8 mph - N/A   Clear
10:35 AM 51.8 °F - 39.2 °F 62% 30.13 in 9.0 mi SSE 11.5 mph - N/A   Clear
10:55 AM 51.8 °F - 39.2 °F 62% 30.13 in 9.0 mi SE 11.5 mph - N/A   Clear
11:15 AM 51.8 °F - 39.2 °F 62% 30.13 in 9.0 mi SE 12.7 mph - N/A   Clear
11:35 AM 53.6 °F - 41.0 °F 62% 30.13 in 9.0 mi SSE 13.8 mph - N/A   Clear
11:55 AM 53.6 °F - 39.2 °F 58% 30.12 in 8.0 mi SSE 11.5 mph - N/A   Clear
12:15 PM 51.8 °F - 39.2 °F 62% 30.12 in 7.0 mi SSE 11.5 mph - N/A   Clear
12:35 PM 51.8 °F - 39.2 °F 62% 30.12 in 7.0 mi SE 12.7 mph - N/A   Clear
12:55 PM 53.6 °F - 39.2 °F 58% 30.12 in 7.0 mi SE 11.5 mph - N/A   Clear
1:15 PM 53.6 °F - 39.2 °F 58% 30.11 in 7.0 mi SE 15.0 mph - N/A   Clear
1:35 PM 53.6 °F - 39.2 °F 58% 30.11 in 7.0 mi SSE 12.7 mph - N/A   Clear
1:55 PM 53.6 °F - 39.2 °F 58% 30.11 in 7.0 mi SSE 11.5 mph - N/A   Clear
2:15 PM 53.6 °F - 39.2 °F 58% 30.11 in 7.0 mi SSE 9.2 mph - N/A   Clear
2:35 PM 53.6 °F - 39.2 °F 58% 30.11 in 8.0 mi SSE 9.2 mph - N/A   Clear
2:55 PM 53.6 °F - 39.2 °F 58% 30.11 in 7.0 mi SSE 9.2 mph - N/A   Clear
3:15 PM 53.6 °F - 39.2 °F 58% 30.11 in 8.0 mi ESE 8.1 mph - N/A   Clear
3:35 PM 53.6 °F - 41.0 °F 62% 30.11 in 7.0 mi ESE 6.9 mph - N/A   Clear
3:55 PM 53.6 °F - 39.2 °F 58% 30.11 in 8.0 mi SE 9.2 mph - N/A   Clear
4:15 PM 51.8 °F - 41.0 °F 67% 30.11 in 9.0 mi ESE 9.2 mph - N/A   Clear
4:35 PM 51.8 °F - 39.2 °F 62% 30.10 in 10.0 mi East 11.5 mph - N/A   Clear
4:55 PM 51.8 °F - 39.2 °F 62% 30.09 in 10.0 mi East 11.5 mph - N/A   Clear
5:15 PM 50.0 °F - 41.0 °F 71% 30.09 in 10.0 mi East 10.4 mph - N/A   Clear
5:35 PM 48.2 °F - 41.0 °F 76% 30.10 in 10.0 mi ESE 6.9 mph - N/A   Clear
5:55 PM 48.2 °F - 39.2 °F 71% 30.11 in 10.0 mi SE 4.6 mph - N/A   Clear
6:15 PM 48.2 °F - 39.2 °F 71% 30.10 in 10.0 mi ESE 10.4 mph - N/A   Clear
6:35 PM 48.2 °F - 41.0 °F 76% 30.11 in 10.0 mi ESE 9.2 mph - N/A   Clear
6:55 PM 50.0 °F - 41.0 °F 71% 30.11 in 10.0 mi ESE 6.9 mph - N/A   Clear
7:15 PM 50.0 °F - 41.0 °F 71% 30.12 in 10.0 mi SSE 5.8 mph - N/A   Clear
7:35 PM 51.8 °F - 41.0 °F 67% 30.12 in 10.0 mi SSE 10.4 mph - N/A   Clear
7:55 PM 51.8 °F - 41.0 °F 67% 30.12 in 10.0 mi South 6.9 mph - N/A   Clear
8:15 PM 51.8 °F - 41.0 °F 67% 30.12 in 10.0 mi South 10.4 mph - N/A   Clear
8:35 PM 51.8 °F - 41.0 °F 67% 30.13 in 10.0 mi South 11.5 mph 17.3 mph N/A   Clear
8:55 PM 51.8 °F - 41.0 °F 67% 30.13 in 9.0 mi South 13.8 mph 20.7 mph N/A   Clear
9:15 PM 50.0 °F - 41.0 °F 71% 30.13 in 8.0 mi South 10.4 mph 18.4 mph N/A   Clear
9:35 PM 50.0 °F - 41.0 °F 71% 30.13 in 7.0 mi South 10.4 mph - N/A   Clear
9:55 PM 48.2 °F - 42.8 °F 82% 30.14 in 7.0 mi South 11.5 mph - N/A   Clear
10:15 PM 48.2 °F - 41.0 °F 76% 30.14 in 7.0 mi South 13.8 mph 18.4 mph N/A   Clear
10:35 PM 48.2 °F - 42.8 °F 82% 30.14 in 7.0 mi South 13.8 mph 19.6 mph N/A   Clear
10:55 PM 48.2 °F - 42.8 °F 82% 30.14 in 7.0 mi South 15.0 mph 19.6 mph N/A   Clear
11:15 PM 48.2 °F - 42.8 °F 82% 30.15 in 7.0 mi South 13.8 mph 20.7 mph N/A   Clear
11:35 PM 48.2 °F - 41.0 °F 76% 30.15 in 7.0 mi South 13.8 mph 24.2 mph N/A   Clear
11:55 PM 48.2 °F - 42.8 °F 82% 30.15 in 7.0 mi South 13.8 mph 19.6 mph N/A   Clear